Погода в Штурбине

Россия / Республика Адыгея     45°03′24″N   39°54′24″E
темп.,
°C
ветер,
м/с
пор.,
м/с
влажн.,
%
обл.,
%
осадки,
мм/ч
давл.,
гПа
погр.,
м
17 апреля, сб
сб1700:00+10св2297100 1.9 101962
03:00+11юз2798100 7.1 1019290
06:00+9зсз4897100 3.5 1021400
09:00+9з3588100 5.3 1023310
12:00+9зсз1286100 0.7 1023345
15:00+9юв2392100 1.3 1023172
18:00+9юв2493100 0.0 1023161
21:00+8вюв3593100 0.1 1022136
18 апреля, вс
вс1800:00+9вюв3691100 0.0 1021153
03:00+9всв3893100 0.1 1019220
06:00+9всв4994100 0.4 1019326
09:00+10всв5790100 0.4 1018432
12:00+11ссв2396100 3.6 1018229
15:00+12в3493100 5.0 1018256
18:00+14в3591100 0.1 1017255
21:00+12в3495100 0.2 101783
19 апреля, пн
пн1900:00+12вюв2393100 0.1 101646
03:00+12юв1191100 0.1 101511
06:00+12юв1194100 0.6 101515
09:00+13в2295100 1.5 101641
12:00+17ю4986100 0.1 1014479
15:00+16ююв348995 0.9 1014213
18:00+16в3790100 0.1 1012189
21:00+14всв4994100 1.0 1011176
20 апреля, вт
вт2000:00+13вюв3694100 0.0 100796
03:00+14в51290100 0.0 1003188
06:00+13в51189100 0.0 999198
09:00+18з51076100 0.0 1001389
12:00+18зюз101777100 0.0 1005954
15:00+17зюз10166360 0.0 10081277
18:00+14зюз10176823 0.0 1011817
21:00+11юз918731 0.0 1014721
21 апреля, ср
ср2100:00+10зюз715800 0.0 1016695
03:00+9зюз512865 0.0 1017448
06:00+7ююз2293100 0.0 101945
09:00+12зюз2375100 0.0 1020644
12:00+15зсз1263100 0.0 10201026
15:00+17в1156100 0.0 10201465
18:00+12юв4784100 0.1 1020267
21:00+10вюв358596 0.1 102191